• En España
  • Lista de países
  • Para 7 días
  • Temperatura del agua
  • Mapa Satelital
  • El tiempo en el mapa
  • Informadores
  • user-avatar
    Iniciar sesión

    Tiempo cada hora Banja Luka

    Hoy, 19 Septiembre, Miércoles

    Tiempo Temperatura Precipitaciones Viento Presión Humedad
    00:00 +16°C° 0 mm 1 mps 718 mmHg 71%
    01:00 +16°C° 0 mm 1 mps 718 mmHg 71%
    02:00 +16°C° 0 mm 1 mps 718 mmHg 71%
    03:00 +16°C° 0 mm 1 mps 718 mmHg 71%
    04:00 +15°C° 0 mm 1 mps 718 mmHg 71%
    05:00 +16°C° 0 mm 1 mps 718 mmHg 70%
    06:00 +18°C° 0 mm 1 mps 718 mmHg 68%
    07:00 +20°C° 0 mm 1 mps 718 mmHg 63%
    08:00 +22°C° 0 mm 1 mps 719 mmHg 56%
    09:00 +24°C° 0 mm 1 mps 719 mmHg 50%
    10:00 +27°C° 0 mm 1 mps 719 mmHg 43%
    11:00 +27°C° 0 mm 1 mps 719 mmHg 42%
    12:00 +28°C° 0 mm 1 mps 719 mmHg 41%
    13:00 +28°C° 0 mm 2 mps 719 mmHg 39%
    14:00 +28°C° 0 mm 2 mps 719 mmHg 43%
    15:00 +27°C° 0 mm 1 mps 718 mmHg 46%
    16:00 +26°C° 0 mm 1 mps 718 mmHg 50%
    17:00 +24°C° 0 mm 1 mps 718 mmHg 57%
    18:00 +22°C° 0 mm 1 mps 718 mmHg 64%
    19:00 +18°C° 0 mm 0 mps 718 mmHg 70%
    20:00 +17°C° 0 mm 0 mps 718 mmHg 72%
    21:00 +17°C° 0 mm 0 mps 718 mmHg 73%
    22:00 +18°C° 0 mm 1 mps 718 mmHg 74%
    23:00 +18°C° 0 mm 1 mps 718 mmHg 75%

    Mañana, 20 Septiembre, Jueves

    Tiempo Temperatura Precipitaciones Viento Presión Humedad
    00:00 +16°C° 0 mm 0 mps 718 mmHg 76%
    01:00 +15°C° 0 mm 0 mps 718 mmHg 77%
    02:00 +15°C° 0 mm 0 mps 718 mmHg 77%
    03:00 +15°C° 0 mm 0 mps 718 mmHg 78%
    04:00 +15°C° 0 mm 0 mps 718 mmHg 79%
    05:00 +16°C° 0 mm 0 mps 718 mmHg 78%
    06:00 +16°C° 0 mm 0 mps 718 mmHg 77%
    07:00 +17°C° 0 mm 0 mps 718 mmHg 75%
    08:00 +21°C° 0 mm 1 mps 718 mmHg 68%
    09:00 +23°C° 0 mm 1 mps 719 mmHg 60%
    10:00 +25°C° 0 mm 1 mps 719 mmHg 52%
    11:00 +26°C° 0.2 mm 1 mps 719 mmHg 50%
    12:00 +26°C° 0.2 mm 2 mps 719 mmHg 48%
    13:00 +27°C° 0.2 mm 2 mps 719 mmHg 46%
    14:00 +27°C° 0.3 mm 2 mps 718 mmHg 49%
    15:00 +26°C° 0.3 mm 1 mps 718 mmHg 52%
    16:00 +25°C° 0.3 mm 1 mps 718 mmHg 55%
    17:00 +24°C° 0.1 mm 1 mps 718 mmHg 60%
    18:00 +22°C° 0.1 mm 1 mps 717 mmHg 64%
    19:00 +18°C° 0.1 mm 0 mps 717 mmHg 68%
    20:00 +17°C° 0 mm 0 mps 717 mmHg 69%
    21:00 +17°C° 0 mm 0 mps 717 mmHg 70%
    22:00 +18°C° 0 mm 1 mps 717 mmHg 71%
    23:00 +18°C° 0 mm 1 mps 717 mmHg 72%

    Pasado mañana, 21 Septiembre, Viernes

    Tiempo Temperatura Precipitaciones Viento Presión Humedad
    00:00 +16°C° 0 mm 1 mps 717 mmHg 74%
    01:00 +16°C° 0 mm 1 mps 717 mmHg 75%
    02:00 +16°C° 0 mm 1 mps 716 mmHg 76%
    03:00 +15°C° 0 mm 1 mps 716 mmHg 77%
    04:00 +15°C° 0 mm 1 mps 716 mmHg 78%
    05:00 +16°C° 0 mm 1 mps 716 mmHg 76%
    06:00 +18°C° 0 mm 1 mps 716 mmHg 75%
    07:00 +19°C° 0 mm 1 mps 716 mmHg 73%
    08:00 +21°C° 0 mm 1 mps 717 mmHg 65%
    09:00 +24°C° 0 mm 1 mps 717 mmHg 56%
    10:00 +25°C° 0 mm 0 mps 718 mmHg 48%
    11:00 +27°C° 0.1 mm 1 mps 718 mmHg 47%
    12:00 +28°C° 0.1 mm 1 mps 717 mmHg 47%
    13:00 +28°C° 0.1 mm 1 mps 717 mmHg 46%
    14:00 +28°C° 0.2 mm 1 mps 717 mmHg 49%
    15:00 +27°C° 0.2 mm 1 mps 716 mmHg 52%
    16:00 +26°C° 0.2 mm 1 mps 716 mmHg 55%
    17:00 +24°C° 0.1 mm 1 mps 716 mmHg 61%
    18:00 +22°C° 0.1 mm 1 mps 716 mmHg 68%
    19:00 +20°C° 0.1 mm 1 mps 716 mmHg 74%
    20:00 +20°C° 0 mm 1 mps 716 mmHg 76%
    21:00 +19°C° 0 mm 1 mps 716 mmHg 79%
    22:00 +19°C° 0 mm 1 mps 717 mmHg 82%
    23:00 +18°C° 0 mm 1 mps 716 mmHg 84%

    22 Septiembre, Sábado

    Tiempo Temperatura Precipitaciones Viento Presión Humedad
    00:00 +18°C° 0 mm 1 mps 716 mmHg 86%
    01:00 +18°C° 0 mm 1 mps 716 mmHg 88%
    02:00 +18°C° 0 mm 1 mps 716 mmHg 89%
    03:00 +16°C° 0 mm 1 mps 716 mmHg 90%
    04:00 +16°C° 0 mm 1 mps 716 mmHg 91%
    05:00 +18°C° 0 mm 1 mps 716 mmHg 88%
    06:00 +18°C° 0 mm 1 mps 716 mmHg 86%
    07:00 +19°C° 0 mm 1 mps 716 mmHg 83%
    08:00 +22°C° 0 mm 1 mps 717 mmHg 74%
    09:00 +24°C° 0 mm 1 mps 717 mmHg 64%
    10:00 +27°C° 0 mm 1 mps 718 mmHg 54%
    11:00 +27°C° 0 mm 1 mps 718 mmHg 53%
    12:00 +28°C° 0 mm 1 mps 717 mmHg 51%
    13:00 +28°C° 0 mm 2 mps 717 mmHg 49%
    14:00 +27°C° 0.2 mm 2 mps 717 mmHg 55%
    15:00 +26°C° 0.2 mm 2 mps 717 mmHg 60%
    16:00 +24°C° 0.2 mm 2 mps 717 mmHg 66%
    17:00 +21°C° 0.2 mm 2 mps 718 mmHg 70%
    18:00 +19°C° 0.2 mm 2 mps 718 mmHg 74%
    19:00 +17°C° 0.2 mm 2 mps 718 mmHg 78%
    20:00 +16°C° 0 mm 2 mps 719 mmHg 79%
    21:00 +15°C° 0 mm 2 mps 719 mmHg 79%
    22:00 +13°C° 0 mm 2 mps 720 mmHg 79%
    23:00 +13°C° 0 mm 1 mps 720 mmHg 80%

    23 Septiembre, Domingo

    Tiempo Temperatura Precipitaciones Viento Presión Humedad
    00:00 +12°C° 0 mm 1 mps 720 mmHg 81%
    01:00 +12°C° 0 mm 1 mps 720 mmHg 81%
    02:00 +12°C° 0.1 mm 1 mps 720 mmHg 82%
    03:00 +12°C° 0.1 mm 1 mps 720 mmHg 82%
    04:00 +12°C° 0.1 mm 1 mps 719 mmHg 83%
    05:00 +12°C° 0.1 mm 1 mps 719 mmHg 83%
    06:00 +12°C° 0.1 mm 1 mps 719 mmHg 83%
    07:00 +12°C° 0.1 mm 1 mps 719 mmHg 82%
    08:00 +15°C° 0 mm 1 mps 719 mmHg 74%
    09:00 +19°C° 0 mm 1 mps 719 mmHg 66%
    10:00 +22°C° 0 mm 1 mps 719 mmHg 58%
    11:00 +23°C° 0 mm 1 mps 719 mmHg 55%
    12:00 +25°C° 0 mm 1 mps 718 mmHg 52%
    13:00 +27°C° 0 mm 1 mps 718 mmHg 49%
    14:00 +27°C° 0 mm 1 mps 717 mmHg 52%
    15:00 +26°C° 0 mm 1 mps 717 mmHg 55%
    16:00 +25°C° 0 mm 2 mps 716 mmHg 57%
    17:00 +23°C° 0 mm 2 mps 716 mmHg 65%
    18:00 +20°C° 0 mm 2 mps 715 mmHg 72%
    19:00 +18°C° 0 mm 2 mps 714 mmHg 79%
    20:00 +18°C° 0 mm 2 mps 714 mmHg 81%
    21:00 +17°C° 0 mm 2 mps 713 mmHg 83%
    22:00 +17°C° 0 mm 3 mps 713 mmHg 85%
    23:00 +17°C° 0 mm 3 mps 712 mmHg 83%

    24 Septiembre, Lunes

    Tiempo Temperatura Precipitaciones Viento Presión Humedad
    00:00 +18°C° 0 mm 3 mps 712 mmHg 81%
    01:00 +18°C° 0 mm 3 mps 711 mmHg 78%
    02:00 +18°C° 0 mm 3 mps 711 mmHg 79%
    03:00 +18°C° 0 mm 4 mps 711 mmHg 79%
    04:00 +18°C° 0 mm 4 mps 710 mmHg 79%
    05:00 +19°C° 0 mm 4 mps 710 mmHg 79%
    06:00 +19°C° 0 mm 4 mps 710 mmHg 80%
    07:00 +19°C° 0 mm 4 mps 710 mmHg 80%
    08:00 +21°C° 0 mm 5 mps 710 mmHg 73%
    09:00 +23°C° 0 mm 6 mps 710 mmHg 67%
    10:00 +24°C° 0 mm 7 mps 709 mmHg 60%
    11:00 +26°C° 0.1 mm 7 mps 709 mmHg 61%
    12:00 +26°C° 0.1 mm 7 mps 709 mmHg 61%
    13:00 +26°C° 0.1 mm 7 mps 709 mmHg 61%
    14:00 +22°C° 1 mm 6 mps 710 mmHg 69%
    15:00 +20°C° 1 mm 5 mps 710 mmHg 78%
    16:00 +18°C° 1 mm 4 mps 710 mmHg 87%
    17:00 +14°C° 3.5 mm 3 mps 711 mmHg 90%
    18:00 +13°C° 3.5 mm 2 mps 712 mmHg 93%
    19:00 +10°C° 3.5 mm 2 mps 712 mmHg 96%
    20:00 +10°C° 2 mm 2 mps 713 mmHg 95%
    21:00 +9°C° 2 mm 2 mps 713 mmHg 95%
    22:00 +9°C° 2 mm 2 mps 714 mmHg 94%
    23:00 +9°C° 0.9 mm 2 mps 714 mmHg 94%
    Mostrar más